Home   Weather   Port Moresby   Past weeks
Flag for Papua New Guinea

Past Weather in Port Moresby, Papua New Guinea — Yesterday and Last 2 Weeks

Now
75 °F

Passing clouds.


Feels Like: 75 °F
Forecast: 86 / 73 °F
Wind: 12 mph from Southeast

Location: Moresby

Current Time: Oct 19, 2019 at 2:21:59 am

Latest Report: Oct 19, 2019 at 1:00 am


Visibility: N/A

Pressure: 29.86 "Hg

Humidity: 89%

Dew Point: 72 °F

Location of Port MoresbyLocation

Past Weather in Port Moresby — Graph

°F

Port Moresby Temperature Yesterday

Maximum temperature yesterday: 86 °F (at 12:00 pm)
Minimum temperature yesterday: 70 °F (at 3:00 am)
Average temperature yesterday: 78 °F

High & Low Weather Summary for the Past Weeks

 TemperatureHumidityPressure
High88 °F (Oct 7, 12:00 pm)100% (Oct 5, 5:00 pm)29.95 "Hg (Oct 5, 5:00 pm)
Low70 °F (Oct 17, 6:00 am)62% (Oct 15, 12:00 pm)29.74 "Hg (Oct 8, 3:00 pm)
Average80 °F84%29.85 "Hg
* Reported Oct 4 5:00 am — Oct 19 1:00 am, Port Moresby. Weather by CustomWeather, © 2019

Note: Actual official high and low records may vary slightly from our data, if they occured in-between our weather recording intervals... More about our weather records

Advertising

Port Moresby Weather History for the Previous 24 Hours

Scroll right to see more
 ConditionsComfort  
Time TempWeatherWind HumidityBarometerVisibility
1:00 am
Sat, Oct 19
75 °FPassing clouds.12 mph89%29.86 "HgN/A
12:00 am75 °FOvercast.12 mph94%29.89 "HgN/A
11:00 pm
Fri, Oct 18
75 °FPassing clouds.9 mph89%29.89 "HgN/A
9:00 pm77 °FPassing clouds.17 mph83%29.89 "HgN/A
8:00 pm79 °FPassing clouds.14 mph79%29.86 "HgN/A
5:00 pm82 °FHaze.6 mph74%29.83 "HgN/A
4:00 pm86 °FScattered clouds.6 mph70%29.80 "HgN/A
3:00 pm86 °FScattered clouds.6 mph66%29.80 "HgN/A
2:00 pm86 °FScattered clouds.6 mph70%29.80 "HgN/A
1:00 pm86 °FScattered clouds.6 mph66%29.83 "HgN/A
12:00 pm86 °FScattered clouds.12 mph70%29.89 "HgN/A
11:00 am82 °FScattered clouds.6 mph70%29.92 "HgN/A
10:00 am82 °FScattered clouds.6 mph70%29.92 "HgN/A
9:00 am81 °FScattered clouds.6 mph74%29.92 "HgN/A
8:00 am77 °FScattered clouds.12 mph89%29.92 "HgN/A
7:00 am75 °FScattered clouds.3 mph94%29.92 "HgN/A
6:00 am70 °FScattered clouds.3 mph100%29.89 "HgN/A
5:00 am70 °FLight fog.2 mph100%29.89 "HgN/A
4:00 am70 °FLight fog.2 mph100%29.86 "HgN/A
3:00 am70 °FLight fog.2 mph100%29.86 "HgN/A
2:00 am73 °FPassing clouds.2 mph94%29.86 "HgN/A
Weather by CustomWeather, © 2019

See weather overview